Time,TemperatureF,DewpointF,PressureIn,WindDirection,WindDirectionDegrees,WindSpeedMPH,WindSpeedGustMPH,Humidity,HourlyPrecipIn,Conditions,Clouds,dailyrainin,SoftwareType,DateUTC
2013-01-10 15:03:00,68.4,45.5,29.73,North,0,0.0,0.0,44,0.00,,,0.00,WUHU216HW,2013-01-10 20:03:00,
2013-01-10 15:08:00,68.4,46.7,29.73,North,0,0.0,0.0,46,0.00,,,0.00,WUHU216HW,2013-01-10 20:08:00,
2013-01-10 15:13:00,68.8,44.6,29.73,North,0,0.0,0.0,42,0.00,,,0.00,WUHU216HW,2013-01-10 20:13:00,
2013-01-10 15:18:00,68.8,47.1,29.73,North,0,0.0,0.0,46,0.00,,,0.00,WUHU216HW,2013-01-10 20:18:00,
2013-01-10 15:23:00,68.8,48.2,29.73,North,0,0.0,0.0,48,0.00,,,0.00,WUHU216HW,2013-01-10 20:23:00,
2013-01-10 15:28:00,68.8,47.6,29.74,North,0,0.0,0.0,47,0.00,,,0.00,WUHU216HW,2013-01-10 20:28:00,
2013-01-10 15:33:00,68.8,48.2,29.74,North,0,0.0,0.0,48,0.00,,,0.00,WUHU216HW,2013-01-10 20:33:00,
2013-01-10 15:38:00,68.8,47.6,29.73,North,0,0.0,0.0,47,0.00,,,0.00,WUHU216HW,2013-01-10 20:38:00,
2013-01-10 15:44:00,68.6,48.1,29.74,North,0,0.0,0.0,48,0.00,,,0.00,WUHU216HW,2013-01-10 20:44:00,
2013-01-10 15:49:00,68.8,47.6,29.74,North,0,0.0,0.0,47,0.00,,,0.00,WUHU216HW,2013-01-10 20:49:00,
2013-01-10 15:54:00,68.6,48.1,29.74,North,0,0.0,0.0,48,0.00,,,0.00,WUHU216HW,2013-01-10 20:54:00,
2013-01-10 15:59:00,68.6,46.9,29.74,North,0,0.0,0.0,46,0.00,,,0.00,WUHU216HW,2013-01-10 20:59:00,
2013-01-10 16:04:00,68.6,47.5,29.74,North,0,0.0,0.0,47,0.00,,,0.00,WUHU216HW,2013-01-10 21:04:00,
2013-01-10 16:09:00,68.6,46.9,29.74,North,0,0.0,0.0,46,0.00,,,0.00,WUHU216HW,2013-01-10 21:09:00,
2013-01-10 16:14:00,68.4,47.4,29.74,North,0,0.0,0.0,47,0.00,,,0.00,WUHU216HW,2013-01-10 21:14:00,
2013-01-10 16:19:00,68.4,47.4,29.74,North,0,0.0,0.0,47,0.00,,,0.00,WUHU216HW,2013-01-10 21:19:00,
2013-01-10 16:24:00,68.0,47.0,29.74,North,0,0.0,0.0,47,0.00,,,0.00,WUHU216HW,2013-01-10 21:24:00,
2013-01-10 16:29:00,68.0,46.5,29.74,North,0,0.0,0.0,46,0.00,,,0.00,WUHU216HW,2013-01-10 21:29:00,
2013-01-10 16:34:00,67.9,46.3,29.74,North,0,0.0,0.0,46,0.00,,,0.00,WUHU216HW,2013-01-10 21:34:00,
2013-01-10 16:39:00,67.9,45.6,29.74,North,0,0.0,0.0,45,0.00,,,0.00,WUHU216HW,2013-01-10 21:39:00,
2013-01-10 16:44:00,67.9,46.3,29.74,North,0,0.0,0.0,46,0.00,,,0.00,WUHU216HW,2013-01-10 21:44:00,
2013-01-10 16:49:00,68.0,45.8,29.75,North,0,0.0,0.0,45,0.00,,,0.00,WUHU216HW,2013-01-10 21:49:00,
2013-01-10 16:54:00,67.9,46.3,29.74,North,0,0.0,0.0,46,0.00,,,0.00,WUHU216HW,2013-01-10 21:54:00,
2013-01-10 16:59:00,67.7,46.1,29.74,North,0,0.0,0.0,46,0.00,,,0.00,WUHU216HW,2013-01-10 21:59:00,
2013-01-10 17:05:00,67.7,45.5,29.75,North,0,0.0,0.0,45,0.00,,,0.00,WUHU216HW,2013-01-10 22:05:00,
2013-01-10 17:10:00,67.5,45.4,29.75,North,0,0.0,0.0,45,0.00,,,0.00,WUHU216HW,2013-01-10 22:10:00,
2013-01-10 17:15:00,67.3,45.2,29.74,North,0,0.0,0.0,45,0.00,,,0.00,WUHU216HW,2013-01-10 22:15:00,
2013-01-10 17:20:00,67.1,43.2,29.74,North,0,0.0,0.0,42,0.00,,,0.00,WUHU216HW,2013-01-10 22:20:00,
2013-01-10 17:25:00,66.8,42.9,29.74,North,0,0.0,0.0,42,0.00,,,0.00,WUHU216HW,2013-01-10 22:25:00,
2013-01-10 17:30:00,66.6,42.1,29.74,North,0,0.0,0.0,41,0.00,,,0.00,WUHU216HW,2013-01-10 22:30:00,
2013-01-10 17:35:00,66.4,41.9,29.74,North,0,0.0,0.0,41,0.00,,,0.00,WUHU216HW,2013-01-10 22:35:00,
2013-01-10 17:40:00,66.2,41.2,29.74,North,0,0.0,0.0,40,0.00,,,0.00,WUHU216HW,2013-01-10 22:40:00,
2013-01-10 17:45:00,65.9,40.9,29.74,North,0,0.0,0.0,40,0.00,,,0.00,WUHU216HW,2013-01-10 22:45:00,
2013-01-10 17:50:00,65.9,40.1,29.73,North,0,0.0,0.0,39,0.00,,,0.00,WUHU216HW,2013-01-10 22:50:00,
2013-01-10 17:55:00,65.9,40.9,29.73,North,0,0.0,0.0,40,0.00,,,0.00,WUHU216HW,2013-01-10 22:55:00,
2013-01-10 18:00:00,65.7,40.1,29.73,North,0,0.0,0.0,39,0.00,,,0.00,WUHU216HW,2013-01-10 23:00:00,
2013-01-10 18:05:00,65.5,39.9,29.73,North,0,0.0,0.0,39,0.00,,,0.00,WUHU216HW,2013-01-10 23:05:00,
2013-01-10 18:10:00,65.2,38.8,29.73,North,0,0.0,0.0,38,0.00,,,0.00,WUHU216HW,2013-01-10 23:10:00,
2013-01-10 18:15:00,65.0,37.9,29.73,North,0,0.0,0.0,37,0.00,,,0.00,WUHU216HW,2013-01-10 23:15:00,
2013-01-10 18:20:00,64.8,37.8,29.73,North,0,0.0,0.0,37,0.00,,,0.00,WUHU216HW,2013-01-10 23:20:00,
2013-01-10 18:25:00,64.4,36.7,29.73,North,0,0.0,0.0,36,0.00,,,0.00,WUHU216HW,2013-01-10 23:25:00,
2013-01-10 18:31:00,64.4,36.7,29.73,North,0,0.0,0.0,36,0.00,,,0.00,WUHU216HW,2013-01-10 23:31:00,
2013-01-10 18:36:00,64.3,35.1,29.73,North,0,0.0,0.0,34,0.00,,,0.00,WUHU216HW,2013-01-10 23:36:00,
2013-01-10 18:40:00,64.1,34.2,29.73,North,0,0.0,0.0,33,0.00,,,0.00,WUHU216HW,2013-01-10 23:40:00,
2013-01-10 18:45:00,63.7,33.2,29.73,North,0,0.0,0.0,32,0.00,,,0.00,WUHU216HW,2013-01-10 23:45:00,
2013-01-10 18:50:00,63.5,31.6,29.74,North,0,0.0,0.0,30,0.00,,,0.00,WUHU216HW,2013-01-10 23:50:00,
2013-01-10 18:56:00,63.4,28.5,29.73,North,0,0.0,0.0,27,0.00,,,0.00,WUHU216HW,2013-01-10 23:56:00,
2013-01-10 19:01:00,63.0,26.2,29.74,North,0,0.0,0.0,25,0.00,,,0.00,WUHU216HW,2013-01-11 00:01:00,
2013-01-10 19:06:00,62.6,23.1,29.73,North,0,0.0,0.0,22,0.00,,,0.00,WUHU216HW,2013-01-11 00:06:00,
2013-01-10 19:11:00,62.6,19.5,29.73,North,0,0.0,0.0,19,0.00,,,0.00,WUHU216HW,2013-01-11 00:11:00,
2013-01-10 19:16:00,62.5,16.2,29.74,North,0,0.0,0.0,17,0.00,,,0.00,WUHU216HW,2013-01-11 00:16:00,
2013-01-10 19:21:00,62.3,8.3,29.74,North,0,0.0,0.0,12,0.00,,,0.00,WUHU216HW,2013-01-11 00:21:00,
2013-01-10 19:26:00,62.3,9.8,29.73,North,0,0.0,0.0,13,0.00,,,0.00,WUHU216HW,2013-01-11 00:26:00,
2013-01-10 19:31:00,62.1,5.0,29.73,North,0,0.0,0.0,10,0.00,,,0.00,WUHU216HW,2013-01-11 00:31:00,
2013-01-10 19:36:00,61.9,4.9,29.73,North,0,0.0,0.0,7,0.00,,,0.00,WUHU216HW,2013-01-11 00:36:00,
2013-01-10 19:41:00,61.9,4.9,29.72,North,0,0.0,0.0,7,0.00,,,0.00,WUHU216HW,2013-01-11 00:41:00,
2013-01-10 19:46:00,61.7,4.7,29.72,North,0,0.0,0.0,5,0.00,,,0.00,WUHU216HW,2013-01-11 00:46:00,
2013-01-10 19:51:00,61.7,4.7,29.73,North,0,0.0,0.0,6,0.00,,,0.00,WUHU216HW,2013-01-11 00:51:00,
2013-01-10 19:56:00,61.7,4.7,29.72,North,0,0.0,0.0,6,0.00,,,0.00,WUHU216HW,2013-01-11 00:56:00,
2013-01-10 20:01:00,61.7,4.7,29.72,North,0,0.0,0.0,7,0.00,,,0.00,WUHU216HW,2013-01-11 01:01:00,
2013-01-10 20:06:00,61.7,4.7,29.72,North,0,0.0,0.0,7,0.00,,,0.00,WUHU216HW,2013-01-11 01:06:00,
2013-01-10 20:11:00,61.7,4.7,29.72,North,0,0.0,0.0,7,0.00,,,0.00,WUHU216HW,2013-01-11 01:11:00,
2013-01-10 20:16:00,61.7,6.2,29.72,North,0,0.0,0.0,11,0.00,,,0.00,WUHU216HW,2013-01-11 01:16:00,
2013-01-10 20:21:00,62.3,14.5,29.72,North,0,0.0,0.0,16,0.00,,,0.00,WUHU216HW,2013-01-11 01:21:00,
2013-01-10 20:26:00,62.6,19.5,29.72,North,0,0.0,0.0,19,0.00,,,0.00,WUHU216HW,2013-01-11 01:26:00,
2013-01-10 20:31:00,63.0,23.3,29.72,North,0,0.0,0.0,22,0.00,,,0.00,WUHU216HW,2013-01-11 01:31:00,
2013-01-10 20:36:00,63.4,26.6,29.72,North,0,0.0,0.0,25,0.00,,,0.00,WUHU216HW,2013-01-11 01:36:00,
2013-01-10 20:41:00,63.4,32.1,29.72,North,0,0.0,0.0,31,0.00,,,0.00,WUHU216HW,2013-01-11 01:41:00,
2013-01-10 20:46:00,63.5,31.6,29.72,North,0,0.0,0.0,30,0.00,,,0.00,WUHU216HW,2013-01-11 01:46:00,
2013-01-10 20:51:00,63.5,32.3,29.72,North,0,0.0,0.0,31,0.00,,,0.00,WUHU216HW,2013-01-11 01:51:00,
2013-01-10 20:56:00,63.4,31.4,29.72,North,0,0.0,0.0,30,0.00,,,0.00,WUHU216HW,2013-01-11 01:56:00,
2013-01-10 21:01:00,63.5,33.8,29.71,North,0,0.0,0.0,33,0.00,,,0.00,WUHU216HW,2013-01-11 02:01:00,
2013-01-10 21:06:00,63.4,33.6,29.71,North,0,0.0,0.0,33,0.00,,,0.00,WUHU216HW,2013-01-11 02:06:00,
2013-01-10 21:11:00,63.4,32.9,29.71,North,0,0.0,0.0,32,0.00,,,0.00,WUHU216HW,2013-01-11 02:11:00,
2013-01-10 21:16:00,63.4,32.1,29.71,North,0,0.0,0.0,31,0.00,,,0.00,WUHU216HW,2013-01-11 02:16:00,
2013-01-10 21:21:00,63.2,32.7,29.71,North,0,0.0,0.0,32,0.00,,,0.00,WUHU216HW,2013-01-11 02:21:00,
2013-01-10 21:26:00,63.2,32.7,29.71,North,0,0.0,0.0,32,0.00,,,0.00,WUHU216HW,2013-01-11 02:26:00,
2013-01-10 21:31:00,63.2,32.0,29.71,North,0,0.0,0.0,31,0.00,,,0.00,WUHU216HW,2013-01-11 02:31:00,
2013-01-10 21:36:00,63.0,31.2,29.71,North,0,0.0,0.0,30,0.00,,,0.00,WUHU216HW,2013-01-11 02:36:00,
2013-01-10 21:41:00,63.4,32.1,29.71,North,0,0.0,0.0,31,0.00,,,0.00,WUHU216HW,2013-01-11 02:41:00,
2013-01-10 21:46:00,63.4,31.4,29.71,North,0,0.0,0.0,30,0.00,,,0.00,WUHU216HW,2013-01-11 02:46:00,
2013-01-10 21:52:00,63.4,29.4,29.71,North,0,0.0,0.0,28,0.00,,,0.00,WUHU216HW,2013-01-11 02:52:00,
2013-01-10 21:57:00,63.2,28.4,29.71,North,0,0.0,0.0,27,0.00,,,0.00,WUHU216HW,2013-01-11 02:57:00,
2013-01-10 22:02:00,63.0,26.2,29.71,North,0,0.0,0.0,25,0.00,,,0.00,WUHU216HW,2013-01-11 03:02:00,
2013-01-10 22:07:00,62.8,26.1,29.70,North,0,0.0,0.0,25,0.00,,,0.00,WUHU216HW,2013-01-11 03:07:00,
2013-01-10 22:12:00,62.8,24.1,29.70,North,0,0.0,0.0,23,0.00,,,0.00,WUHU216HW,2013-01-11 03:12:00,
2013-01-10 22:17:00,62.6,23.1,29.70,North,0,0.0,0.0,22,0.00,,,0.00,WUHU216HW,2013-01-11 03:17:00,
2013-01-10 22:22:00,62.5,19.4,29.70,North,0,0.0,0.0,19,0.00,,,0.00,WUHU216HW,2013-01-11 03:22:00,
2013-01-10 22:27:00,62.5,21.9,29.70,North,0,0.0,0.0,21,0.00,,,0.00,WUHU216HW,2013-01-11 03:27:00,
2013-01-10 22:32:00,62.3,17.6,29.70,North,0,0.0,0.0,18,0.00,,,0.00,WUHU216HW,2013-01-11 03:32:00,
2013-01-10 22:37:00,62.3,16.1,29.70,North,0,0.0,0.0,17,0.00,,,0.00,WUHU216HW,2013-01-11 03:37:00,
2013-01-10 22:42:00,62.1,6.6,29.71,North,0,0.0,0.0,11,0.00,,,0.00,WUHU216HW,2013-01-11 03:42:00,
2013-01-10 22:47:00,61.4,4.4,29.71,North,0,0.0,0.0,1,0.01,,,0.01,WUHU216HW,2013-01-11 03:47:00,
2013-01-10 22:52:00,60.3,3.5,29.71,North,0,0.0,0.0,1,0.01,,,0.01,WUHU216HW,2013-01-11 03:52:00,
2013-01-10 22:57:00,59.8,3.1,29.71,North,0,0.0,0.0,1,0.01,,,0.01,WUHU216HW,2013-01-11 03:57:00,
2013-01-10 23:02:00,59.4,2.8,29.71,North,0,0.0,0.0,1,0.01,,,0.01,WUHU216HW,2013-01-11 04:02:00,
2013-01-10 23:07:00,59.2,2.7,29.71,North,0,0.0,0.0,1,0.01,,,0.01,WUHU216HW,2013-01-11 04:07:00,
2013-01-10 23:12:00,58.9,2.3,29.71,North,0,0.0,0.0,1,0.01,,,0.01,WUHU216HW,2013-01-11 04:12:00,
2013-01-10 23:17:00,58.5,2.1,29.70,North,0,0.0,0.0,1,0.01,,,0.01,WUHU216HW,2013-01-11 04:17:00,
2013-01-10 23:22:00,58.3,2.0,29.70,North,0,0.0,0.0,1,0.01,,,0.01,WUHU216HW,2013-01-11 04:22:00,
2013-01-10 23:27:00,58.3,2.0,29.69,North,0,0.0,0.0,1,0.01,,,0.01,WUHU216HW,2013-01-11 04:27:00,
2013-01-10 23:32:00,58.3,2.0,29.69,North,0,0.0,0.0,1,0.01,,,0.01,WUHU216HW,2013-01-11 04:32:00,
2013-01-10 23:37:00,58.3,2.0,29.69,North,0,0.0,0.0,1,0.01,,,0.01,WUHU216HW,2013-01-11 04:37:00,
2013-01-10 23:42:00,58.3,2.0,29.69,North,0,0.0,0.0,1,0.01,,,0.01,WUHU216HW,2013-01-11 04:42:00,
2013-01-10 23:47:00,58.3,2.0,29.69,North,0,0.0,0.0,1,0.00,,,0.01,WUHU216HW,2013-01-11 04:47:00,
2013-01-10 23:52:00,58.3,2.0,29.68,North,0,0.0,0.0,1,0.00,,,0.01,WUHU216HW,2013-01-11 04:52:00,
2013-01-10 23:57:00,58.1,1.8,29.68,North,0,0.0,0.0,1,0.00,,,0.01,WUHU216HW,2013-01-11 04:57:00,